Temp
17 18 18 19 19 20 21 21 22 23 24 25 25 25 25 25 26 26 28 32 32 31 31 30 29 28 28 30 30 30 33 32 32 31 28 28 27 26 26 26 24 26 24 21 18
16 17 18 18 19 19 20 21 22 23 24 24 24 24 25 25 25 25 33 33 32 32 32 31 31 30 32 31 31 32 33 33 32 31 29 28 27 26 26 25 23 22 20 20 19
15 16 17 18 18 19 20 21 22 23 23 24 24 24 25 25 27 32 32 32 32 32 32 32 31 32 33 31 31 31 33 32 30 30 30 28 27 26 26 25 24 22 21 20 20
13 14 16 17 18 18 19 20 21 23 23 23 24 24 25 25 32 31 32 32 31 31 32 31 32 33 33 33 31 33 32 32 30 29 29 28 27 26 26 26 25 24 22 21 21
11 12 14 16 18 18 19 20 22 23 23 23 24 24 24 27 30 31 32 32 30 30 32 33 33 33 34 33 32 33 31 30 30 29 29 28 27 26 25 25 24 23 23 23 23
10 12 13 15 17 18 19 21 22 23 23 23 24 24 24 27 30 30 30 32 30 30 31 32 34 33 33 32 32 31 31 30 31 30 29 29 28 28 24 24 23 23 23 23 23
10 11 12 14 16 18 19 21 22 23 23 23 23 22 23 29 29 29 29 30 30 30 33 32 33 34 34 32 32 32 31 31 30 30 29 30 29 27 25 25 23 23 23 23 23
10 10 11 14 16 18 20 21 23 23 22 23 22 21 26 28 28 29 29 30 30 30 31 32 32 33 34 33 33 32 33 32 30 30 29 30 29 26 25 25 24 23 22 23 22
10 10 11 13 16 18 21 21 22 21 21 21 21 22 28 28 27 30 30 31 30 30 31 31 32 32 34 34 33 32 33 32 30 31 30 29 30 28 26 26 26 25 25 24 24
9 10 10 13 15 18 21 20 19 20 20 19 19 23 27 30 29 29 30 31 32 32 32 32 32 34 33 35 34 33 32 32 32 31 31 30 31 29 27 27 26 26 26 26 25
9 10 10 12 15 18 20 20 22 22 20 26 27 26 27 28 28 29 29 31 32 33 33 32 34 34 35 35 34 33 33 33 33 32 32 32 32 30 28 28 27 27 27 27 27
9 9 10 12 15 17 17 19 16 16 21 23 23 24 25 26 28 30 30 32 32 33 31 32 34 33 34 33 34 34 34 34 33 33 32 31 32 31 29 29 29 28 28 28 28
9 9 10 12 15 15 13 15 15 15 20 25 24 26 27 27 29 29 31 31 32 31 32 34 34 32 32 32 33 33 34 32 34 31 31 31 31 31 30 29 29 29 29 29 29
9 9 9 11 14 12 15 15 16 16 24 27 26 27 27 29 30 30 31 33 30 32 31 33 32 32 33 33 34 35 33 34 32 33 33 32 34 30 32 29 29 29 30 29 29
9 9 9 9 8 11 15 16 16 16 25 28 26 27 27 31 31 29 30 32 31 30 32 33 31 32 33 34 34 35 33 33 33 33 32 31 34 34 29 31 31 31 30 31 30
9 9 9 9 8 14 15 16 17 24 24 28 28 27 27 30 30 29 31 32 31 31 30 32 31 33 35 33 34 32 32 32 31 33 33 33 34 36 32 32 34 33 32 31 31
9 9 9 7 12 14 14 17 23 24 26 28 28 27 29 30 30 31 31 30 31 30 30 30 32 32 33 34 33 33 35 33 32 33 34 29 32 36 37 35 34 34 34 32 32
9 9 10 10 12 12 13 20 22 25 26 28 28 27 28 29 31 30 31 30 30 30 30 31 31 32 33 34 34 34 36 35 33 33 34 29 33 36 35 34 34 34 34 34 32
8 9 8 12 10 9 16 20 24 24 28 28 28 28 28 29 31 30 30 31 31 31 33 31 32 31 33 34 35 31 34 35 32 29 34 33 34 35 35 35 33 33 33 33 33
7 6 8 10 9 11 17 20 23 24 25 28 28 28 29 30 30 31 29 31 31 30 31 31 32 32 33 34 32 35 33 34 33 32 33 33 33 37 37 37 33 32 32 32 32
6 10 10 9 9 14 18 20 22 24 24 26 28 28 28 29 30 31 30 31 32 30 32 30 31 31 32 33 34 32 33 31 34 33 35 34 35 35 34 35 34 34 33 32 32
6 10 9 8 14 13 17 18 21 24 24 25 26 27 28 28 30 30 31 33 32 32 31 31 32 32 33 31 32 35 36 36 35 31 31 35 36 35 33 32 32 34 32 32 32
8 8 9 10 14 15 16 18 21 23 24 25 26 26 26 28 28 30 30 31 31 31 32 30 31 32 32 32 31 34 32 33 32 32 31 35 36 33 32 32 32 32 33 31 30
7 9 11 12 10 13 14 17 19 22 22 24 24 25 26 27 26 28 30 30 30 32 27 31 31 32 34 34 34 32 32 32 36 34 34 35 36 34 34 34 33 31 29 28 28
7 9 8 10 12 11 11 14 18 20 22 23 24 24 26 27 27 28 29 30 29 25 30 32 31 30 32 33 33 34 34 32 34 36 35 36 34 36 34 34 34 30 26 26 26
8 9 9 10 9 11 11 14 16 18 20 22 22 24 24 26 28 27 28 29 28 28 28 27 30 29 32 32 33 34 34 33 34 31 33 33 33 35 35 31 30 29 27 27 26
6 7 8 9 10 11 12 12 14 14 18 19 22 23 23 24 25 26 26 26 27 27 27 28 28 29 31 32 31 30 32 33 33 33 34 33 35 31 30 30 31 30 27 27 26
Height
808 805 803 800 797 794 791 789 787 784 781 779 777 776 775 774 772 771 770 766 766 767 768 769 769 771 771 769 769 768 783 794 792 796 806 800 806 806 806 810 814 812 817 827 832
809 806 804 801 798 795 792 789 787 783 780 779 776 776 774 772 770 768 765 765 765 766 767 767 766 770 769 769 769 773 783 786 779 783 797 800 804 808 813 815 821 822 825 830 834
809 806 804 801 798 795 792 789 786 783 780 779 776 775 774 772 770 760 760 761 764 766 766 766 767 767 770 770 772 775 783 779 785 783 788 800 807 807 813 820 818 823 826 831 834
809 806 803 800 797 794 791 788 785 783 780 778 776 775 774 774 784 760 759 759 762 765 766 766 766 771 776 779 772 778 779 778 787 789 794 803 804 811 810 812 814 821 826 831 834
810 806 802 799 795 792 789 786 783 781 779 777 776 775 774 774 766 759 759 758 761 764 766 765 769 771 776 775 776 779 784 785 787 790 797 800 808 812 817 815 819 823 827 829 832
809 805 802 798 793 790 787 784 781 779 776 775 775 774 775 780 760 759 759 759 761 764 765 765 765 765 771 777 780 778 784 791 791 794 799 803 808 807 821 819 823 825 827 829 832
809 805 800 796 792 788 784 781 778 776 774 773 773 773 774 764 758 758 759 759 760 763 763 764 763 766 767 779 776 777 793 794 798 798 803 797 809 817 819 820 825 826 828 829 831
809 804 799 794 790 786 782 778 775 772 771 771 772 773 768 756 755 756 757 759 759 762 763 762 763 765 768 771 780 788 788 808 803 800 802 803 822 817 819 821 824 827 829 829 831
807 803 798 793 788 783 779 774 771 770 770 770 772 773 764 754 753 751 755 756 759 760 763 764 765 770 771 781 793 794 805 809 812 798 804 808 816 812 815 819 822 823 824 825 827
805 801 796 790 786 780 775 772 771 771 771 772 773 774 755 751 749 749 751 755 757 760 765 768 770 776 781 782 806 802 806 807 808 802 802 809 808 809 812 815 819 820 820 820 821
804 799 794 788 783 778 773 772 774 772 770 757 756 756 751 749 748 749 750 753 755 760 773 771 780 786 775 773 778 786 796 801 793 791 801 803 805 806 808 812 815 816 816 816 816
802 798 792 787 781 777 775 775 781 784 771 753 754 754 750 752 755 747 748 753 760 770 771 778 782 773 771 777 779 786 796 798 795 791 798 805 805 800 803 805 806 810 811 811 811
801 796 791 784 779 778 777 778 779 779 776 750 745 743 743 748 750 747 745 748 759 771 770 773 768 770 776 785 788 790 795 801 797 799 800 807 810 806 800 802 802 802 804 804 804
800 796 791 783 782 781 780 778 776 777 772 747 741 732 736 737 746 736 740 743 759 765 772 772 768 773 777 782 778 792 783 788 798 801 813 797 813 810 796 802 801 798 796 797 798
799 795 792 790 786 783 780 777 774 777 788 735 735 724 727 729 731 738 735 741 758 763 765 770 773 775 779 774 771 783 781 788 790 800 805 810 808 793 800 801 791 787 786 787 788
796 793 791 788 785 778 777 776 775 778 782 736 725 731 735 728 731 734 736 737 745 760 763 765 760 762 757 765 768 774 785 791 797 798 817 803 802 788 794 779 772 773 778 779 782
793 789 788 787 779 776 776 775 776 773 737 732 730 728 727 731 733 732 740 750 757 776 777 772 766 758 756 768 771 774 783 813 822 818 816 814 810 782 758 759 761 762 762 767 771
788 784 778 776 773 775 776 773 770 736 734 719 721 726 733 727 727 734 738 750 749 754 768 776 789 765 753 758 769 775 771 795 825 821 809 817 812 781 755 750 750 749 752 757 765
784 777 772 767 767 773 773 765 734 734 716 721 720 729 733 725 723 730 736 738 736 740 756 772 771 754 750 748 751 781 784 766 798 817 806 801 788 761 750 748 748 750 751 754 757
783 776 769 765 765 770 764 744 733 723 717 713 725 720 728 724 726 725 737 724 735 735 733 753 768 750 749 745 755 756 758 786 789 822 822 805 803 779 756 747 748 751 751 751 754
782 775 766 762 766 763 748 739 730 721 721 718 715 720 719 719 718 720 727 722 719 733 731 747 756 762 751 752 756 768 769 778 773 789 798 809 791 755 755 747 746 744 746 748 751
783 771 767 766 760 758 743 740 729 721 717 717 713 713 714 716 715 719 719 710 707 717 738 739 748 761 754 747 742 737 745 751 772 804 798 784 778 744 748 747 745 741 743 743 745
782 776 767 766 752 748 746 739 731 722 720 718 716 712 713 715 723 714 714 706 707 715 724 736 753 764 762 754 750 748 752 753 761 773 794 787 777 745 745 744 741 742 740 744 745
783 772 766 764 766 758 753 739 733 722 723 718 718 714 714 716 716 717 713 709 709 708 718 720 741 745 750 744 739 755 753 751 744 771 774 770 760 752 744 740 738 742 745 748 750
784 777 778 768 760 763 762 750 736 731 720 719 720 719 714 719 719 717 711 711 714 719 717 720 739 743 737 734 736 737 741 750 751 745 760 753 762 742 737 734 732 739 748 750 752
783 779 777 772 770 762 761 749 743 735 729 721 725 717 718 717 713 721 715 714 722 719 725 728 737 740 740 736 736 741 735 744 742 753 749 751 755 729 726 734 739 740 746 748 750
786 783 780 773 766 759 755 756 748 749 731 727 723 723 722 719 716 713 715 721 722 726 730 731 737 744 746 733 744 758 738 735 739 738 736 757 733 732 738 734 731 735 740 745 749
Wind_Speed
20 19 19 20 21 21 21 21 22 23 18 15 13 10 10 11 12 7 5 3 6 12 8 10 5 4 2 2 0 1 2 2 2 5 8 12 5 6 5 7 5 3 10 15 20
22 21 21 20 21 21 20 20 21 22 19 14 12 10 11 12 9 8 8 5 9 12 7 5 2 4 1 2 1 2 1 3 4 8 11 9 5 7 4 6 6 14 19 22 21
23 23 23 22 22 22 21 20 20 19 18 14 11 9 9 9 4 2 2 13 13 11 5 4 5 1 2 3 2 1 3 5 9 13 15 9 9 3 11 5 6 17 18 19 19
24 24 24 23 23 23 22 21 20 18 18 12 10 8 7 3 5 1 7 7 16 11 6 4 2 1 1 0 1 1 5 7 10 10 7 7 7 8 3 6 14 15 18 17 16
27 26 25 24 24 24 24 22 20 17 17 11 10 7 3 2 7 6 6 3 18 12 6 4 2 1 2 2 3 3 7 10 13 15 12 10 9 8 12 14 14 15 15 13 14
28 28 27 26 25 24 24 22 19 18 16 10 8 4 1 5 4 4 1 5 12 12 7 5 2 1 0 6 1 8 17 15 10 12 9 11 5 3 7 13 13 12 12 12 13
28 29 28 27 27 26 25 21 21 18 12 7 5 1 2 11 5 2 1 5 5 10 3 4 2 1 2 9 10 15 16 12 8 7 3 7 8 6 12 12 12 11 9 10 12
29 31 31 29 28 27 24 23 20 14 5 3 1 3 6 4 11 18 12 6 6 11 3 2 1 1 1 13 3 5 7 6 6 4 6 7 5 8 11 11 11 10 9 10 11
29 30 32 31 28 26 24 23 12 1 1 3 2 1 7 4 6 12 14 6 6 5 6 3 1 2 4 8 5 2 6 5 6 7 4 4 4 10 13 10 9 10 10 10 10
28 30 32 31 28 25 21 9 1 2 3 2 1 3 6 2 2 5 18 11 4 8 5 4 2 3 3 5 5 8 5 5 6 11 8 7 3 11 15 13 11 11 11 12 12
28 29 31 31 29 21 16 2 3 3 3 7 4 3 3 8 1 6 11 9 4 4 8 5 7 11 13 6 1 8 5 9 11 8 10 12 5 9 14 14 12 11 12 13 13
27 29 31 31 27 10 5 5 5 3 7 9 14 10 11 3 3 3 13 9 5 10 7 5 13 7 8 7 11 7 5 7 3 7 13 8 12 6 14 17 16 14 14 14 13
26 28 30 32 17 6 3 11 9 4 4 7 7 7 7 12 8 7 11 8 9 10 13 12 5 16 11 9 10 6 6 4 5 6 4 6 8 9 10 13 15 16 15 15 16
25 26 28 34 2 16 2 3 15 8 4 5 7 8 8 9 6 10 15 11 4 15 10 7 5 12 11 12 10 10 10 7 8 8 3 9 1 7 13 16 16 18 18 18 19
24 24 24 24 14 6 1 15 4 4 4 3 5 1 7 15 10 9 9 5 10 8 8 10 13 10 8 6 12 3 4 7 7 8 5 8 4 3 6 15 21 22 22 21 20
24 24 24 14 15 13 10 17 4 4 9 3 7 8 10 10 9 7 10 4 4 6 3 4 2 6 10 5 12 14 10 12 7 5 4 6 6 3 7 15 20 20 21 22 21
25 25 25 18 5 6 17 4 5 7 0 6 6 8 17 12 13 13 19 17 12 9 9 3 7 1 3 10 8 7 8 4 4 4 1 1 7 11 11 11 11 20 25 24 22
26 29 26 22 20 10 3 4 12 11 9 1 4 7 14 12 16 12 21 22 11 5 7 11 10 11 9 9 8 13 9 4 4 4 3 3 6 7 4 5 8 16 17 20 20
28 22 15 7 9 10 4 11 11 6 15 5 6 8 10 10 10 12 20 25 23 16 8 11 8 4 13 7 11 6 7 2 6 2 3 4 5 12 6 8 6 12 13 16 20
18 10 7 7 6 11 6 10 6 3 2 14 8 5 14 17 12 18 18 19 17 17 5 6 7 7 10 7 4 6 12 6 1 7 6 4 4 5 4 4 1 7 12 14 14
6 5 8 3 12 4 9 10 7 7 5 5 15 7 5 12 15 20 17 8 23 19 14 8 2 5 9 12 15 6 5 5 4 2 9 6 5 6 8 5 7 2 9 11 13
4 3 3 6 4 2 8 5 6 9 2 3 2 5 8 8 15 15 21 17 22 21 21 8 2 5 12 4 1 9 12 10 7 5 1 4 7 4 8 10 7 5 6 9 11
4 3 3 3 4 5 3 8 7 14 7 3 3 3 2 5 6 14 10 7 14 20 20 11 4 6 7 4 2 6 5 5 7 3 8 10 7 2 5 7 7 6 6 7 8
2 3 2 0 1 3 4 6 17 11 9 3 3 1 3 3 2 7 11 5 11 20 8 19 8 10 11 12 8 7 9 10 12 7 8 9 9 7 9 10 8 6 4 5 6
1 1 3 3 2 4 2 4 7 11 13 8 5 7 7 3 2 3 6 7 8 5 11 12 14 12 11 4 5 7 14 15 14 12 12 11 12 13 14 14 12 8 7 9 9
2 2 1 4 5 4 2 0 5 9 6 20 8 10 5 8 1 4 2 2 3 7 4 4 8 8 18 14 14 18 15 15 13 6 4 4 9 12 9 5 9 11 10 11 11
1 4 3 2 4 3 2 3 2 8 7 11 9 15 6 9 7 7 3 1 1 1 2 3 7 6 14 9 9 11 18 16 11 9 6 7 11 10 10 14 15 15 14 13 13
Wind_Direction
10 9 9 6 4 1 0 359 356 354 348 343 337 334 334 329 318 303 250 206 167 165 151 150 162 146 193 171 275 147 226 126 104 147 132 147 141 69 84 106 67 68 116 128 138
6 4 3 2 359 358 356 353 352 351 345 346 341 335 335 333 316 250 262 207 168 163 155 157 194 148 196 33 57 282 266 70 41 110 134 134 114 124 130 111 93 100 111 134 146
5 1 358 356 354 352 350 350 348 346 342 342 338 335 338 336 290 269 293 203 190 173 152 147 118 99 355 5 34 81 27 92 51 101 123 115 115 111 136 122 151 143 139 148 156
3 360 355 350 349 348 346 343 342 339 338 331 328 331 333 340 230 93 12 203 194 194 151 123 98 74 215 318 227 303 73 82 119 103 107 100 115 114 31 106 138 143 145 153 164
358 356 354 347 344 342 342 338 335 332 331 319 320 322 340 254 253 284 331 186 183 192 185 180 179 184 345 75 138 57 91 78 110 94 95 106 87 98 98 118 133 138 153 165 175
354 352 349 346 341 338 337 333 330 326 321 305 314 301 113 242 253 294 279 153 179 177 187 200 203 149 77 46 344 108 105 106 101 101 129 120 106 162 131 133 141 162 168 174 185
350 349 346 342 341 336 334 329 322 317 305 292 305 194 190 243 226 125 201 193 207 185 172 203 158 252 135 102 125 115 99 99 98 121 116 126 66 78 147 154 156 173 182 186 195
346 346 344 340 340 337 331 325 317 308 270 287 162 140 249 245 237 251 257 224 187 210 209 109 99 200 57 124 123 105 107 143 166 154 165 310 123 145 165 170 170 181 196 208 213
342 342 342 340 340 334 328 322 318 191 166 138 123 166 259 257 234 234 209 188 171 189 191 91 42 65 137 141 123 37 170 150 166 203 177 273 126 166 174 190 192 193 198 210 219
341 341 340 339 339 333 329 331 42 151 136 130 100 272 249 155 241 188 181 168 153 139 128 155 110 157 138 185 193 180 155 184 192 193 197 200 192 167 184 196 209 203 206 210 216
340 340 339 338 339 332 338 287 259 210 217 218 173 258 277 324 228 196 167 155 123 155 174 167 186 186 175 191 174 163 177 198 219 191 192 211 223 190 192 204 214 216 216 219 220
338 339 337 337 336 336 3 84 70 308 303 243 247 261 261 301 295 206 170 157 163 177 141 160 216 170 170 158 149 160 186 226 227 179 206 202 229 212 198 211 212 218 223 223 223
338 339 338 336 338 3 32 127 356 163 248 278 209 210 214 173 210 228 194 143 168 161 187 200 180 152 147 162 158 196 199 208 230 113 165 175 233 217 210 215 220 226 226 230 226
335 337 340 340 53 339 248 351 333 180 280 242 208 231 162 154 223 186 184 165 162 189 164 209 149 158 171 186 188 227 206 195 188 180 230 201 259 208 205 210 217 223 226 226 224
331 333 334 339 305 298 298 327 345 168 273 151 172 62 159 178 137 200 170 167 169 162 175 183 178 178 186 205 190 211 138 193 207 191 182 192 253 124 198 224 218 218 221 225 226
324 325 327 330 303 273 302 328 171 203 236 225 156 165 161 194 166 127 164 113 126 136 86 137 166 208 216 161 183 143 104 87 106 173 220 178 240 219 193 217 219 219 215 223 221
318 317 310 292 250 300 321 293 186 218 114 190 183 173 182 181 163 167 175 180 175 168 188 162 195 182 198 149 165 171 168 170 167 190 148 326 205 261 255 241 222 214 213 212 216
315 314 305 279 271 272 306 201 218 193 207 160 157 163 186 163 190 170 178 187 197 139 165 185 199 193 195 196 173 188 203 210 173 185 158 128 219 243 270 296 242 227 219 212 215
319 314 293 290 248 202 203 209 210 190 210 182 143 173 192 196 194 169 188 196 192 188 183 179 217 163 188 175 176 168 191 194 106 64 204 173 254 277 262 260 284 215 201 204 208
321 304 275 313 185 164 202 230 232 243 286 215 213 204 190 194 192 189 182 200 195 192 217 180 195 189 172 133 128 210 145 167 204 160 210 186 271 253 282 326 84 167 195 204 205
318 307 342 199 150 201 214 226 229 264 265 212 211 204 202 191 207 197 185 171 191 184 191 156 248 147 160 204 171 154 173 73 117 301 209 220 230 219 247 292 311 201 198 202 202
330 280 50 143 202 226 216 204 229 251 248 278 259 200 197 179 200 203 198 204 195 172 191 177 178 188 191 109 279 204 186 179 199 191 200 245 220 199 251 274 265 260 214 204 205
312 279 341 243 226 220 245 238 251 238 227 225 252 224 176 170 189 207 201 209 186 181 186 172 200 183 161 156 129 199 164 138 108 132 190 208 209 222 263 252 237 239 217 207 207
319 309 314 229 28 337 334 235 223 236 261 231 288 271 187 157 24 174 174 158 178 199 161 168 184 214 204 194 155 168 177 177 193 200 189 221 223 225 222 228 214 193 188 194 197
1 336 332 329 142 343 286 310 237 228 232 218 222 231 209 155 136 125 187 137 80 155 169 183 216 207 219 193 177 174 185 181 191 199 208 215 209 222 213 212 207 182 169 170 166
303 312 340 290 300 298 137 213 270 280 262 220 241 215 216 219 140 165 94 81 68 67 138 175 209 191 224 217 236 245 232 203 208 180 205 187 224 236 244 191 187 189 188 184 173
311 278 276 318 312 289 115 359 326 343 248 245 259 242 232 245 270 310 298 261 293 108 81 143 176 172 228 219 217 245 230 212 192 189 192 188 231 169 197 208 209 195 192 185 180